Погода в Майртупе

Россия / Чеченская Республика     43°12′13″N   46°07′51″E
темп.,
°C
ветер,
м/с
пор.,
м/с
влажн.,
%
обл.,
%
осадки,
мм/ч
давл.,
гПа
погр.,
м
26 октября, вт
вт2600:00+5з4693100 1.6 1032879
03:00+5зюз3592100 3.0 1032620
06:00+5зюз358798 0.1 1033452
09:00+7сз347130 0.1 1033788
12:00+8ссз2260100 0.0 10321330
15:00+8с1158100 0.0 1031822
18:00+7ссз016096 0.0 103314
21:00+6всв226537 0.0 1033108
27 октября, ср
ср2700:00+3вюв22755 0.0 103224
03:00+2в22780 0.0 103230
06:00+2вюв11801 0.0 103117
09:00+6всв24630 0.0 1030402
12:00+11всв55481 0.0 1027903
15:00+12всв55460 0.0 1025870
18:00+7в25750 0.0 1025104
21:00+6юз11780 0.0 102414
28 октября, чт
чт2800:00+5юз11760 0.0 102310
03:00+4юз22770 0.0 102415
06:00+4ююз22740 0.0 102413
09:00+10зсз11540 0.0 1025251
12:00+14зсз45380 0.0 1023802
15:00+15зсз46330 0.0 10221040
18:00+9зюз225188 0.0 102420
21:00+9юз2256100 0.0 102426
29 октября, пт
пт2900:00+8зюз2259100 0.0 102323
03:00+7юз2262100 0.0 102429
06:00+8юз226298 0.0 102435
09:00+12зюз365376 0.0 1025572
12:00+14зсз4647100 0.0 10231114
15:00+15зсз5840100 0.0 10241695
18:00+11зюз387190 0.3 1026512
21:00+10зюз31187100 2.3 1027757
30 октября, сб
сб3000:00+9зюз5989100 4.7 1028681
03:00+9сз4793100 8.6 1029619
06:00+8сз3687100 2.9 1031611
09:00+7зсз347432 3.7 1034711
12:00+10зсз356191 0.1 10341243
15:00+10сз235683 0.1 10341342
18:00+8всв226826 0.0 103672
21:00+5в23791 0.0 103660